Location: *
(43.2614°N, 0.9206°E)
Time: 00:29:40
(UTC+00:00)

Daily predictions for brighter satellites

Satellite Brightness Start Highest point End
(mag) Time Altitude Azimuth Time Altitude Azimuth Time Altitude Azimuth
Cosmos 2237 Rocket 3.9 00:01:27 16° W 00:04:47 27° NW 00:09:32 10° N
Cosmos 1943 4.4 00:05:32 28° ESE 00:05:32 28° ESE 00:10:12 10° NE
Cosmos 1553 Rocket 3.8 00:08:10 66° SSW 00:09:04 84° W 00:15:13 10° N
Cosmos 1503 Rocket 4.2 00:09:20 56° E 00:09:20 56° E 00:14:26 10° NNE
Cosmos 1733 Rocket 3.7 00:10:40 50° ENE 00:10:40 50° ENE 00:14:22 10° NNE
Cosmos 968 Rocket 3.8 00:11:12 52° E 00:11:12 52° E 00:16:00 10° NNE
SL-19 R/B 4.2 00:12:08 68° SW 00:12:39 73° WSW 00:18:33 10° NNW
S3M 3.9 00:13:24 63° S 00:14:32 85° E 00:20:58 10° N
Cosmos 836 Rocket 4.4 00:09:47 10° NNW 00:15:04 76° ENE 00:15:24 72° ESE
Cosmos 1417 Rocket 4.5 00:14:00 61° SSW 00:15:08 77° W 00:21:25 10° N
NOSS 3-2 (A) 4.4 00:08:59 10° NNW 00:16:24 61° NE 00:22:36 19° SE
ISS -1.6 00:15:13 10° NW 00:18:01 26° NNE 00:18:01 26° NNE
BREEZE-M DEB (TANK) 3.7 00:14:22 10° WNW 00:18:16 85° NNE 00:34:16 10° ESE
CENTAUR R/B 4.3 00:11:46 10° NNW 00:19:00 38° NE 00:26:52 10° ESE
DELTA 2 DEB (DPAF) 4.3 00:19:40 72° NE 00:19:40 72° NE 00:23:52 10° N
Mayak 1.6 00:19:41 10° NW 00:20:08 10° WNW 00:20:34 10° WNW
ATLAS CENTAUR R/B 4.1 00:20:45 10° WNW 00:21:15 11° W 00:21:15 11° W
ATLAS 3B R/B 3.9 00:19:03 10° NNW 00:25:12 37° NE 00:31:23 10° ESE
Lacrosse 4 Rocket 3.0 00:26:20 28° WNW 00:27:09 30° NW 00:31:06 10° N
SL-19 R/B 4.1 00:22:15 10° NNE 00:27:51 76° WNW 00:28:27 67° SW
Cosmos 1709 Rocket 4.3 00:22:27 10° N 00:28:33 56° ENE 00:30:10 44° SE
Cosmos 1354 Rocket 3.9 00:29:45 77° SE 00:29:56 78° ESE 00:35:15 10° NNE
Okean 3 3.9 00:25:56 10° N 00:29:26 58° NNW 00:29:26 58° NNW
Lacrosse 5 2.6 00:26:56 10° NW 00:30:30 40° W 00:30:30 40° W
NOSS 2-2 (E) 4.3 00:33:21 41° NE 00:33:21 41° NE 00:36:16 10° NE
Meteor 1-19 Rocket 4.0 00:27:38 10° NNW 00:33:06 75° W 00:33:26 72° SW
SL-16 R/B 4.1 00:30:43 14° ESE 00:35:01 30° ENE 00:40:14 10° N
Cosmos 1943 Rocket 2.3 00:29:56 10° NNW 00:35:27 69° ENE 00:36:33 54° ESE
Resurs 1-4 Rocket 3.9 00:31:58 10° NE 00:35:38 19° E 00:36:49 17° ESE
ATLAS 5 CENTAUR R/B 2.3 00:30:42 10° NW 00:36:38 84° SW 00:38:02 58° SSE
Cosmos 1908 Rocket 4.4 00:36:57 41° E 00:36:57 41° E 00:40:52 10° NNE
CZ-4C R/B 3.7 00:41:19 72° NNW 00:41:19 72° NNW 00:45:21 10° NNW
Meteor 2-14 Rocket 4.4 00:34:54 10° N 00:40:59 76° E 00:42:17 56° SSE
CZ-4B R/B 3.5 00:37:00 10° NNE 00:41:57 61° ESE 00:42:04 61° ESE
USA 238 DEB 3.7 00:35:54 10° NW 00:43:08 87° SW 00:46:01 41° SSE
USA 238 3.7 00:36:00 10° NW 00:43:14 88° WSW 00:46:09 41° SSE
ATLAS 2AS CENTAUR R/B 3.0 00:41:07 49° SSW 00:43:32 75° ESE 00:51:37 10° NE
Cosmos 1745 Rocket 4.1 00:37:24 10° NNW 00:43:35 61° W 00:44:34 54° SW
COSMOS 2455 4.5 00:42:02 15° W 00:45:53 28° NW 00:51:02 10° NNE
NOSS 2-2 (D) 4.0 00:49:40 49° NE 00:49:40 49° NE 00:52:48 10° NE
Meteor 1-11 Rocket 3.7 00:49:05 61° SSE 00:49:54 71° E 00:55:35 10° NNE
Unknown 4.5 00:54:08 44° ENE 00:54:08 44° ENE 00:57:05 10° ENE
SL-08 ROCKET BODY 4.3 00:48:10 10° N 00:54:18 76° W 00:55:22 60° SSW
Unknown 4.4 00:55:43 46° ENE 00:55:43 46° ENE 00:58:45 10° ENE
Unknown 4.4 00:56:11 44° ENE 00:56:11 44° ENE 00:59:08 10° ENE
Cosmos 2098 Rocket 4.4 00:52:04 10° N 00:53:28 24° N 00:53:28 24° N
Unknown 4.3 00:57:19 48° ENE 00:57:19 48° ENE 01:00:25 10° ENE
H-2A R/B 3.4 00:56:02 30° ESE 00:57:19 36° ENE 01:01:27 10° N
Cosmos 1666 4.3 00:57:45 27° E 00:57:45 27° E 01:00:48 10° NNE
Unknown 4.2 00:58:54 50° ENE 00:58:54 50° ENE 01:02:05 10° ENE
Cosmos 2315 Rocket 3.9 00:57:32 56° S 00:59:02 86° E 01:05:27 10° N
Unknown 4.1 01:00:31 55° ENE 01:00:31 55° ENE 01:03:50 10° NE
Unknown 4.1 01:02:05 55° ENE 01:02:05 55° ENE 01:05:23 10° NE
Unknown 4.0 01:03:44 59° ENE 01:03:44 59° ENE 01:07:10 10° NE
Unknown 4.0 01:05:17 60° ENE 01:05:17 60° ENE 01:08:43 10° NE
PSLV R/B 4.1 01:00:41 10° N 01:04:34 46° WNW 01:04:34 46° WNW
CZ-2D R/B 3.3 01:00:40 10° NNE 01:05:37 34° E 01:07:05 29° SE
Unknown 3.9 01:06:53 62° ENE 01:06:53 62° ENE 01:10:24 10° NE
Cosmos 2369 Rocket 2.1 01:01:49 10° NNW 01:07:31 72° WSW 01:08:17 63° SSW
Meteor 1-5 Rocket 4.3 01:07:22 58° SSW 01:08:35 77° W 01:14:35 10° N
Cosmos 1782 Rocket 3.9 01:10:30 54° ESE 01:10:44 55° E 01:15:07 10° NNE
Unknown 3.8 01:11:41 70° NE 01:11:41 70° NE 01:15:24 10° NE
Unknown 3.7 01:13:15 72° NE 01:13:15 72° NE 01:17:02 10° NE
Cosmos 1536 3.0 01:14:51 68° NNW 01:14:51 68° NNW 01:18:28 10° N
Unknown 3.7 01:14:51 73° NNE 01:14:51 73° NNE 01:18:41 10° NE
Unknown 3.7 01:16:27 74° N 01:16:27 74° N 01:20:22 10° NE
Cosmos 1346 Rocket 4.3 01:16:20 26° ESE 01:16:43 27° E 01:20:07 10° NE
Cosmos 773 Rocket 4.2 01:12:54 10° NNW 01:18:09 69° ENE 01:19:49 43° SE
Unknown 3.7 01:19:40 74° NNW 01:19:40 74° NNW 01:23:43 10° NE
Cosmos 1603 4.1 01:18:13 42° WSW 01:19:39 53° WNW 01:25:11 10° NNE
Unknown 4.5 01:19:52 36° NNW 01:19:57 36° NNW 01:23:15 10° NE
Unknown 3.7 01:21:14 73° NNW 01:21:14 73° NNW 01:25:23 10° NE
Unknown 3.7 01:22:51 71° NW 01:22:52 71° NNW 01:27:01 10° NE
NOSS 2-2 (C) 3.9 01:23:08 45° NW 01:23:12 45° NW 01:27:14 10° NNE
Unknown 3.7 01:24:25 70° NW 01:24:29 70° NNW 01:28:39 10° NE
Unknown 3.9 01:25:59 53° NW 01:26:08 54° NNW 01:29:58 10° NE
Unknown 3.7 01:26:01 66° NW 01:26:11 67° NNW 01:30:20 10° NE
Unknown 3.7 01:27:32 69° NW 01:27:41 70° NNW 01:31:50 10° NE
NOSS 3-2 (C) 4.0 01:21:43 10° NW 01:29:21 82° WSW 01:36:21 16° SSE
BREEZE-M DEB (TANK) 3.6 01:27:12 24° WNW 01:29:26 68° SSW 01:40:34 10° SE
Cosmos 1500 4.1 01:31:03 38° WNW 01:31:03 38° WNW 01:34:12 10° N
Unknown 3.8 01:30:43 64° WNW 01:31:00 66° NNW 01:35:08 10° NE
Unknown 4.2 01:31:53 44° NW 01:32:16 46° NNW 01:36:00 10° NE
Unknown 3.8 01:32:20 61° WNW 01:32:41 65° NNW 01:36:50 10° NE
SL-16 R/B 4.5 01:30:16 10° W 01:33:38 16° NW 01:37:02 10° N
SAR-Lupe-1 4.3 01:34:53 66° NNW 01:34:53 66° NNW 01:38:00 10° NNW
Unknown 4.0 01:34:00 53° WNW 01:34:31 58° NNW 01:38:38 10° NE
SL-4 R/B 3.6 01:30:44 10° NW 01:35:11 40° NNE 01:39:22 10° E
Cosmos 2184 Rocket 4.1 01:28:59 10° N 01:35:19 72° E 01:38:21 32° SSE
Meteor 1-23 Rocket 4.2 01:29:31 10° NNW 01:35:22 78° W 01:37:04 48° S
Unknown 3.9 01:35:31 56° WNW 01:36:01 61° NNW 01:40:08 10° NE
Unknown 3.9 01:37:06 53° WNW 01:37:41 59° NNW 01:41:48 10° NE
MOZ.5/SAFIR/RUBIN 5/SL-8 3.8 01:36:30 47° SSE 01:37:48 75° ENE 01:42:33 10° N
Sich 1 Rocket 3.5 01:37:14 69° SSW 01:37:48 88° W 01:42:25 10° N
Meteor 2-8 Rocket 4.4 01:36:02 47° SSW 01:37:57 79° W 01:44:07 10° N
Cosmos 2263 4.3 01:34:34 10° NNW 01:40:03 53° WSW 01:40:51 49° SW
Unknown 4.1 01:40:18 49° WNW 01:41:00 57° NNW 01:45:06 10° NE
Unknown 4.1 01:41:53 47° WNW 01:42:40 55° NNW 01:46:46 10° NE
ARIANE 5 R/B 4.2 01:38:45 10° NE 01:43:03 26° E 01:45:51 17° SE
Unknown 4.1 01:43:30 45° WNW 01:44:21 54° NNW 01:48:26 10° NE
CBERS-1 4.4 01:39:57 10° NNE 01:45:01 56° E 01:46:44 38° SSE
SL-08 R/B 4.4 01:42:15 18° SE 01:45:22 41° ENE 01:49:50 10° N
Cosmos 1975 Rocket 2.9 01:41:13 10° NNW 01:45:32 73° W 01:45:53 69° SW
Unknown 4.2 01:45:04 43° WNW 01:46:00 53° NNW 01:50:04 10° NE
Unknown 4.2 01:46:41 41° WNW 01:47:41 51° NNW 01:51:45 10° NE
NOSS 3-4 (A) 3.4 01:46:06 41° SW 01:48:22 76° NW 01:54:47 10° NE
NOSS 3-4 (C) 3.4 01:46:13 41° SW 01:48:28 76° NW 01:54:53 10° NE
Cosmos 1943 3.9 01:47:20 33° WSW 01:49:15 44° WNW 01:54:41 10° NNE
CZ-4B R/B 4.1 01:50:27 10° ESE 01:52:27 16° ENE 01:54:27 10° NNE
Okean 2 3.6 01:49:10 10° N 01:53:21 67° E 01:54:28 45° SE
Unknown 4.4 01:53:06 33° WNW 01:54:26 46° NNW 01:58:27 10° NE
Cosmos 1538 Rocket 3.9 01:49:15 10° NNW 01:54:29 71° WSW 01:56:02 45° S
Unknown 4.4 01:54:40 33° WNW 01:56:02 46° NNW 02:00:03 10° NE
Cosmos 1656 Rocket 3.6 01:51:24 10° NNW 01:57:05 71° WSW 01:59:28 36° S
RESURS DK-1 2.7 01:57:50 48° SSE 01:58:31 55° ESE 02:02:36 10° NE
NPP 3.6 01:53:32 10° NNE 01:58:57 83° WNW 02:00:52 42° SSW
Cosmos 1975 3.2 01:58:03 45° SSE 01:59:01 59° E 02:03:03 10° NNE
deb Chang Zheng 4 3.7 01:55:12 10° NNE 01:59:27 65° ESE 02:00:32 46° SSE
Cosmos 2074 Rocket 4.0 02:00:22 10° NNW 02:06:35 65° W 02:09:24 34° SSW
SJ 16-02 3.7 02:04:10 10° SE 02:06:56 17° E 02:09:47 10° NE
Cosmos 1066 Rocket 4.4 02:02:54 10° NNW 02:08:33 57° W 02:10:35 37° SSW
BREEZE-M DEB (TANK) 3.0 02:05:10 10° WNW 02:13:29 - SE 02:09:41 50° WSW
CENTAUR R/B 3.1 02:02:18 10° NW 02:10:23 70° WSW 02:19:00 10° SSE
Cosmos 1680 Rocket 4.1 02:07:21 10° NNW 02:12:37 58° ENE 02:17:48 10° SE
Cosmos 1378 4.1 02:10:35 10° N 02:14:09 44° ENE 02:16:14 21° SE
Resurs 1-4 Rocket 2.3 02:10:38 10° N 02:15:51 58° WNW 02:17:54 35° SW
CZ-4C R/B 2.9 02:15:22 63° S 02:15:52 79° WSW 02:19:28 10° NNW
Cosmos 1743 2.7 02:15:22 54° SW 02:15:57 63° W 02:19:49 10° N
ATLAS 3B R/B 2.7 02:09:39 10° NW 02:16:06 53° WSW 02:20:45 20° S
FALCON 9 R/B 4.4 02:09:56 26° SW 02:18:08 48° SSE 03:49:11 10° ESE
SL-16 R/B 2.8 02:15:49 32° SSW 02:18:20 49° W 02:24:21 10° NNW
Cosmos 1943 Rocket 3.8 02:15:09 10° WNW 02:18:02 17° W 02:18:02 17° W
ADEOS II 2.7 02:15:17 10° NNE 02:20:24 50° E 02:23:50 20° SSE
Atlas Centaur 2 4.1 02:20:00 19° S 02:20:37 19° SSE 02:25:04 10° ESE
ATLAS 5 CENTAUR R/B 4.1 02:17:08 10° WNW 02:19:30 15° W 02:19:30 15° W
Okean 2 Rocket 3.3 02:19:44 41° SW 02:20:55 55° W 02:25:18 10° N
Cosmos 1898 Rocket 4.4 02:18:00 21° SSE 02:21:10 43° ESE 02:26:11 10° NNE
Nadezhda 1 Rocket 4.1 02:22:04 30° SSW 02:25:24 68° W 02:31:47 10° N
IRS-P3 4.1 02:20:45 10° N 02:26:07 77° WNW 02:28:46 31° SSW
Meteor 2-9 Rocket 4.3 02:26:14 23° S 02:29:39 70° E 02:35:13 10° NNE
IRS-1D 3.5 02:25:00 10° N 02:29:55 69° WNW 02:32:13 32° SSW
Cosmos 1666 4.3 02:32:39 20° W 02:33:07 20° WNW 02:36:03 10° NNW
H-2A R/B 3.4 02:33:08 23° W 02:33:21 23° W 02:37:00 10° NW
Cosmos 1536 Rocket 3.5 02:29:12 10° NNW 02:33:41 76° W 02:36:05 27° S
Meteor 1-21 4.3 02:29:12 10° N 02:35:02 83° E 02:40:35 11° SSE
Cosmos 1842 3.2 02:31:14 10° N 02:35:07 83° E 02:37:17 25° SSE
ATLAS 2AS CENTAUR R/B 4.2 02:28:32 12° W 02:35:17 35° NW 02:42:33 10° NNE
PSLV R/B 3.3 02:36:27 43° SE 02:36:27 43° SE 02:38:46 10° E
Milstar 3 3.8 02:39:23 21° SSW 02:41:06 24° S 02:46:52 10° ESE
CZ-2D R/B 3.1 02:40:45 10° N 02:45:36 34° WNW 02:48:25 21° WSW
Genesis I 3.7 02:44:12 29° WSW 02:45:57 52° NW 02:49:56 10° NNE
Cosmos 2341 Rocket 4.0 02:39:50 10° N 02:46:15 88° W 02:52:39 10° S
CZ-2D R/B 3.8 02:46:31 10° NNE 02:50:52 71° ESE 02:54:01 19° S
Cosmos 1300 Rocket 4.2 02:50:46 27° SW 02:52:40 41° WNW 02:56:54 10° N
Cosmos 1340 4.0 02:51:54 22° W 02:52:54 25° WNW 02:56:03 10° NNW
Cosmos 1346 Rocket 4.3 02:51:52 20° W 02:53:03 23° WNW 02:56:16 10° NNW
Cosmos 2154 Rocket 4.4 02:48:03 10° NNW 02:54:05 47° W 02:58:23 19° SSW
Cosmos 2218 Rocket 4.4 02:50:12 10° N 02:56:23 67° E 03:02:36 10° SSE
Cosmos 2151 Rocket 4.4 02:54:33 25° SW 02:56:33 37° WNW 03:00:47 10° N
Cosmos 2084 4.0 02:53:52 10° NNW 02:58:02 59° NE 03:02:05 10° SE
CZ-2C R/B 3.0 02:54:48 10° NNE 02:58:31 64° ESE 03:01:20 17° S
Cosmos 1544 3.2 02:56:12 19° S 02:58:43 73° E 03:02:25 10° NNE
Cosmos 2112 Rocket 4.1 02:59:37 10° NNW 03:04:52 59° WSW 03:10:02 10° S
BREEZE-M DEB (TANK) 4.4 02:50:45 10° WNW 03:05:00 72° NNE 03:08:47 10° ESE
Meteor 2-17 Rocket 4.5 03:05:10 10° N 03:11:21 88° WSW 03:17:30 10° S
Cosmos 1689 Rocket 2.1 03:10:40 18° S 03:12:42 57° W 03:15:39 10° NNW
Cosmos 990 Rocket 4.0 03:09:02 18° SSW 03:13:02 76° WNW 03:18:19 10° NNE
COSMOS 2406 3.2 03:08:36 16° SSW 03:13:11 87° ESE 03:18:54 10° NNE
Cosmos 1025 Rocket 3.8 03:09:18 10° NNW 03:13:18 35° W 03:16:02 18° SSW
SL-4 R/B 2.1 03:10:37 10° WNW 03:15:07 60° SW 03:19:15 10° SE
Okean 1 Rocket 3.3 03:12:16 18° SSW 03:15:27 54° W 03:19:52 10° N
Spot 2 4.3 03:14:06 10° NNE 03:18:39 82° ESE 03:23:27 10° SSW
Cosmos 1441 Rocket 4.3 03:16:25 10° SSE 03:20:04 43° E 03:23:46 10° NNE
ARIANE 5 R/B 3.2 03:17:29 10° N 03:22:15 40° WNW 03:26:12 15° SW
CZ-4B R/B 2.5 03:23:31 19° SW 03:24:42 23° W 03:27:16 10° NW
USA 215 3.2 03:18:57 10° SE 03:25:30 83° SW 03:32:05 10° NW
Okean 1-7 Rocket 3.8 03:22:45 10° N 03:27:19 77° E 03:31:49 10° SSE
ADEOS 4.0 03:22:43 10° NNE 03:27:55 65° ESE 03:33:06 10° S
SL-8 Rocket 4.1 03:23:59 10° NNW 03:30:10 58° W 03:36:20 10° S
Cosmos 158 Rocket 3.9 03:26:49 10° NNW 03:31:49 67° WSW 03:36:55 10° S
Cosmos 2150 Rocket 4.4 03:28:50 10° S 03:33:57 62° ESE 03:39:03 10° NNE
Cosmos 405 3.7 03:30:58 10° NNW 03:34:10 33° W 03:37:22 10° SSW
RESURS DK-1 4.4 03:34:12 10° W 03:36:54 17° NW 03:39:38 10° N
Cosmos 1697 Rocket 3.6 03:33:05 10° NNW 03:38:38 53° ENE 03:44:10 10° SE
Aureole 2 Rocket 3.2 03:38:53 10° NW 03:41:33 25° WSW 03:44:04 10° SSW
Cosmos 1833 Rocket 3.1 03:36:03 10° S 03:41:36 63° ESE 03:47:11 10° NNE
Cosmos 2181 Rocket 4.5 03:36:04 10° SSW 03:41:57 44° WNW 03:47:52 10° N
SJ 16-02 1.9 03:41:10 11° SW 03:45:07 44° WNW 03:49:21 10° N
Meteor 1-15 Rocket 4.2 03:39:52 10° SSW 03:45:34 80° W 03:51:13 10° N
Cosmos 1980 Rocket 4.1 03:41:08 10° N 03:46:15 35° NE 03:51:21 10° ESE
Cosmos 1544 Rocket 3.8 03:42:13 10° S 03:46:30 70° E 03:50:49 10° NNE
GEOS 3 Rocket 3.7 03:42:20 10° NNE 03:47:28 69° NW 03:52:35 10° SW
Cosmos 1707 3.2 03:47:09 10° NNW 03:50:47 39° W 03:54:22 10° SSW
Cosmos 2278 4.4 03:46:25 10° NNW 03:52:01 60° ENE 03:57:36 10° SE
Cosmos 1455 Rocket 3.0 03:51:41 10° SSW 03:56:03 76° W 04:00:25 10° N
Iridium 61 3.9 03:54:48 10° SSE 03:56:18 47° E 03:57:47 10° NNE
Aureole 3 3.9 03:54:53 10° SW 03:57:33 28° WNW 04:00:31 10° NNW
IDEFIX/ARIANE 42P 2.7 03:53:47 10° NNE 03:58:59 81° ESE 04:04:10 10° S
Cosmos 1937 Rocket 4.3 03:54:12 10° SW 03:59:01 38° WNW 04:03:55 10° N
GPS 2-04 Rocket1 4.4 03:57:17 10° SSW 03:59:22 15° SSE 04:01:26 10° SE
ADEOS II 3.5 03:55:42 10° NNW 03:59:45 23° WNW 04:03:48 10° WSW
Cosmos 44 3.0 03:55:27 10° NW 04:00:02 85° WSW 04:04:23 10° SSE
CENTAUR R/B 4.5 03:55:26 10° WNW 04:00:03 16° WSW 04:04:48 10° SW
Cosmos 1656 3.7 03:55:32 10° NNW 04:01:11 64° WSW 04:06:47 10° S
Cosmos 1674 3.7 03:58:13 10° N 04:01:59 51° E 04:05:44 10° SSE
Meteor 1-28 Rocket 4.0 04:01:15 10° SSW 04:04:41 33° W 04:08:08 10° NNW
